Content
SEND FEEDBACK

Daily
Averages
Monthly
Summary
United States of America

CHAMPION, NEBRASKA


Home > North America > United States > Nebraska
Elevation: 3550 feet     Latitude: 40 34N     Longitude: 101 59W

WEATHER
 
SELECT A DAY
Number of Records: 185,967;   Date Range: 1/1/95 - 11/25/14
 
SHARE

PRINT THIS DATA

[ ← Previous Day ]
WEATHER ALMANAC - FEBRUARY 13, 2013
[ Next Day → ]
[ °C ]   °F
Weather ElementAverageHighLow
Temperature36.9 °F50 °F (12:53 pm)23 °F (6:53 am)
Dewpoint21.4 °F27 °F (10:53 pm)15.1 °F (5:53 am)
Humidity56.1 %82 % (10:53 pm)33 % (1:53 pm)
Barometer29.97 in30.04 in (1:53 am)29.89 in (2:53 pm)
Wind Speed13.4 mph23 mph (10:53 am)
Wind Gust32.2 mph (10:53 am)
Weather ElementAverage
Visibility10 mi
Wind DirectionWNW (299.6 °)

Weather ElementTotal
Precipitation---
Heating Degree Days28.5 (Base 65)
Averaged from 23 records on February 13, 2013
WEATHER CONDITIONS BREAKOUT
WIND DIRECTION BREAKOUT
WEATHER BY HOUR - FEBRUARY 13, 2013
[ °C ]   °F
Local TimeTemperatureDewpointHumidityBarometerVisibilityWind DirectionWind SpeedGust SpeedPrecipitationEventsConditions
1:53 AM24.1 °F16.0 °F71 %30.04 in10.0 miWNW (290°)9.2 mphClear
2:53 AM27.0 °F17.1 °F66 %30.01 in10.0 miWNW (300°)11.5 mphClear
3:53 AM28.9 °F18.0 °F64 %29.99 in10.0 miWNW (290°)9.2 mphClear
4:53 AM27.0 °F17.1 °F66 %29.99 in10.0 miWest (270°)10.4 mphClear
5:53 AM25.0 °F15.1 °F66 %30.00 in10.0 miWest (270°)11.5 mphClear
6:53 AM23.0 °F15.1 °F72 %30.01 in10.0 miWest (270°)12.7 mphClear
7:53 AM28.9 °F16.0 °F58 %30.01 in10.0 miWest (270°)13.8 mphClear
8:53 AM35.1 °F19.0 °F52 %29.99 in10.0 miWNW (290°)16.1 mphClear
9:53 AM41.0 °F21.9 °F47 %29.97 in10.0 miNW (310°)21.9 mph29.9 mphClear
10:53 AM45.0 °F21.9 °F40 %29.95 in10.0 miNW (310°)23.0 mph32.2 mphClear
11:53 AM48.9 °F24.1 °F38 %29.94 in10.0 miNW (310°)16.1 mph26.5 mphClear
12:53 PM50.0 °F23.0 °F35 %29.91 in10.0 miNW (310°)23.0 mph28.8 mphClear
1:53 PM50.0 °F21.9 °F33 %29.90 in10.0 miNW (320°)19.6 mph27.6 mphScattered Clouds
2:53 PM50.0 °F23.0 °F35 %29.89 in10.0 miNW (320°)13.8 mphOvercast
3:53 PM50.0 °F21.9 °F33 %29.90 in10.0 miNNW (330°)11.5 mph18.4 mphMostly Cloudy
4:53 PM46.9 °F24.1 °F41 %29.90 in10.0 miNW (310°)4.6 mphPartly Cloudy
5:53 PM42.1 °F24.1 °F49 %29.92 in10.0 miWest (280°)8.1 mphClear
6:53 PM37.0 °F24.1 °F59 %29.96 in10.0 miWNW (290°)10.4 mphClear
7:53 PM37.0 °F25.0 °F62 %29.98 in10.0 miWNW (300°)13.8 mphClear
8:53 PM35.1 °F24.1 °F64 %30.00 in10.0 miNW (310°)13.8 mphClear
9:53 PM32.0 °F25.0 °F75 %30.00 in10.0 miNW (310°)8.1 mphPartly Cloudy
10:53 PM32.0 °F27.0 °F82 %30.02 in10.0 miNW (310°)13.8 mphClear
11:53 PM32.0 °F27.0 °F82 %30.02 in10.0 miNW (320°)12.7 mphClear
Hourly data recorded from KHEQ, located miles away from Champion, Nebraska







STORIES FROM OUR PARTNERS